Location: Vancouver
(49.2500°N, 123.1330°W)
Time: 07:51:56
(UTC-08:00)

BREEZE-M DEB (TANK) - Visible Passes

Search period start: 25 February 2017 00:00
Search period end: 07 March 2017 00:00
Orbit: 271 x 13292 km, 49.6° (Epoch: 23 February)

Date Brightness Start Highest point End Pass type
(mag) Time Alt. Az. Time Alt. Az. Time Alt. Az.
25 Feb 8.5 00:11:41 10° WNW 01:31:29 62° WSW 02:51:38 10° S visible
25 Feb 8.9 05:15:47 10° NW 05:41:08 12° WNW 06:07:46 10° WNW visible
25 Feb 7.6 16:25:45 10° SSW 16:44:31 61° ESE 18:17:13 10° ENE visible
25 Feb 8.6 20:47:11 10° W 21:38:05 89° SSW 23:31:28 10° SE visible
26 Feb 8.5 01:21:43 10° NW 02:38:07 47° W 03:52:03 10° SSW visible
26 Feb 7.8 17:29:32 10° SW 17:51:41 77° SE 19:41:53 10° E visible
26 Feb 8.6 21:54:27 10° WNW 22:59:59 82° SW 00:40:14 10° SE visible
27 Feb 8.6 02:33:39 10° NW 03:39:59 33° W 04:47:01 10° SW visible
27 Feb 8.1 18:34:20 10° WSW 19:02:54 87° SSE 20:46:01 21° E visible
27 Feb 8.5 23:02:27 10° WNW 00:17:10 71° SW 01:45:52 10° SSE visible
28 Feb 8.7 03:50:12 10° NW 04:38:18 20° WNW 05:06:20 17° W visible
28 Feb 8.4 19:40:02 10° W 20:18:59 89° N 21:47:04 34° ESE visible
01 Mar 8.5 00:11:18 10° WNW 01:27:47 57° WSW 02:48:26 10° S visible
01 Mar 7.6 16:24:10 10° SSW 16:42:38 67° SE 18:18:56 10° ENE visible
01 Mar 8.7 20:46:31 10° W 21:39:28 88° SSW 22:48:26 46° SE visible
02 Mar 8.5 01:21:21 10° NW 02:32:48 42° W 03:47:02 10° SSW visible
02 Mar 7.9 17:28:10 10° SW 17:50:44 81° SSE 19:39:48 12° E visible
02 Mar 8.6 21:53:42 10° WNW 22:59:38 79° SW 00:38:23 10° SSE visible
03 Mar 8.6 02:33:49 10° NW 03:33:35 28° W 04:00:22 25° W visible
03 Mar 8.2 18:33:07 10° WSW 19:02:53 89° SSE 20:41:33 24° E visible
03 Mar 8.5 23:01:34 10° WNW 00:14:26 66° WSW 01:42:56 10° S visible
04 Mar 9.1 03:53:19 10° NW 04:31:06 16° WNW 05:02:12 13° W visible
04 Mar 8.5 19:38:51 10° W 20:19:42 90° N 21:43:29 37° ESE visible
05 Mar 8.5 00:10:19 10° WNW 01:23:05 52° WSW 01:53:50 46° SW visible
05 Mar 7.6 16:22:12 10° SW 16:40:37 72° SE 18:20:12 10° ENE visible
05 Mar 8.7 20:45:17 10° W 21:39:46 85° SSW 22:45:32 48° SE visible
06 Mar 8.6 01:20:31 10° NW 02:26:46 38° W 02:55:54 33° WSW visible
06 Mar 7.9 17:26:22 10° WSW 17:49:33 85° SSE 19:37:23 14° E visible
